OpenBCM V1.13 (Linux)

Packet Radio Mailbox

DB0FHN

[JN59NK Nuernberg]

 Login: GUEST





  
LU9DCE > KEP      23.07.19 20:34l 251 Lines 12331 Bytes #-2474 (0) @ WW
BID : 28900_LU9DCE
Read: DJ6UX DF7EAV GUEST
Subj: TLE 23 07
Path: DB0FHN<DB0BLO<DB0ERF<IZ3LSV<IK6IHL<IK7NXU<HB9ON<IW2OHX<UA6ADV<I0OJJ<
      LU9DCE
Sent: 190723/1800Z @:LU9DCE.TOR.BA.ARG.SOAM #:28900 LinBPQ6.0.18

>From lu9dce%lu9dce.tor.ba.arg.soam@i0ojj.ampr.org Tue Jul 23 20:02:13 2019
Received: from i0ojj.ampr.org by i0ojj.ampr.org (JNOS2.0k.3b) with SMTP
	id AA23007 ; Tue, 23 Jul 2019 20:02:13 +0200
Message-Id: <28900_lu9dce@lu9dce.bbs>
>From: lu9dce@lu9dce.tor.ba.arg.soam
X-JNOS-User-Port: Circuit  (X-YORK:VE3CGR-8 LU9DCE)  -> Sending message

            __    _  _  ___  ____   ___  ____    ____  ____  ____
           (  )  / )( \/ _ \(    \ / __)(  __)  (  _ \(  _ \/ ___)
           / (_/\) \/ (\__  )) D (( (__  ) _)    ) _ ( ) _ (\___ \
           \____/\____/(___/(____/ \___)(____)  (____/(____/(____/
               ESTACION DE PACKET RADIO - BUENOS AIRES (GF05OM)
                   BOLETINES INFORMATIVOS PROGRAMADOS (BIP)
                  SLACKWARE LINUX - HELLOCODELINUX@GMAIL.COM

+----------------------------------------------------------------------------+
OSCAR 7
1  7530U 74089B   19203.93074229 -.00000027 +00000-0 +11093-3 0  9991
2  7530 101.7459 171.2440 0011748 282.2301 095.0278 12.53638972044579
OSCAR 11 (UoSAT 2)
1 14781U 84021B   19204.10891226  .00000039  00000-0  10851-4 0  9992
2 14781  97.6090 227.1967 0007931 196.7607 163.3347 14.83096518903862
OSCAR 19 (LUSAT)
1 20442U 90005G   19203.88441033 -.00000007 +00000-0 +13751-4 0  9991
2 20442 098.6497 145.8298 0012745 052.1041 308.1294 14.32929246541218
EYESAT A
1 22825U 93061C   19204.20334930 -.00000011  00000-0  13640-4 0  9999
2 22825  98.9046 193.6304 0007301 257.2404 102.7961 14.30062765346887
ITAMSAT
1 22826U 93061D   19204.47677985 -.00000014  00000-0  12327-4 0  9993
2 22826  98.8986 193.8971 0007888 243.6555 116.3817 14.30396468347127
RADIO ROSTO
1 23439U 94085A   19203.92799628 -.00000039 +00000-0 +10814-3 0  9994
2 23439 064.8171 060.7610 0146172 106.5382 255.1655 11.27568441011758
JAS 2
1 24278U 96046B   19204.00860663  .00000002  00000-0  36309-4 0  9990
2 24278  98.5421 352.7691 0350916 150.8912 211.2300 13.53092621132442
TECHSAT 1B
1 25397U 98043D   19204.40854463 -.00000015  00000-0  12514-4 0  9994
2 25397  98.6895 144.1345 0000635   2.2492 357.8689 14.23667973 92812
ISS (ZARYA)
1 25544U 98067A   19204.46827929  .00000680  00000-0  19346-4 0  9994
2 25544  51.6423 181.2653 0006744 170.4974 335.1950 15.50997383180883
PCSAT
1 26931U 01043C   19203.68873439 -.00000034  00000-0  18569-4 0  9993
2 26931  67.0512 275.9521 0007202 276.5377  83.4904 14.30547474929831
SAUDISAT 1C
1 27607U 02058C   19204.45062590 -.00000054  00000-0  13299-4 0  9992
2 27607  64.5558 303.3254 0080132 249.8343 109.4127 14.75559961892166
CUTE-1
1 27844U 03031E   19203.84506939  .00000016  00000-0  26823-4 0  9993
2 27844  98.6834 211.5472 0008686 295.9638  64.0644 14.22186148833147
CUBESAT XI 4
1 27848U 03031J   19204.48030234  .00000014  00000-0  26275-4 0  9997
2 27848  98.6912 212.6806 0008713 306.7489  53.2888 14.21780565833082
MOZHAYETS 4
1 27939U 03042A   19204.56588799  .00000056  00000-0  18578-4 0  9996
2 27939  98.0460 339.7097 0012025 321.0621  38.9732 14.66791539845653
CUBESAT XI 5
1 28895U 05043F   19204.37309909  .00000082  00000-0  24700-4 0  9997
2 28895  97.9639 345.9242 0015614 239.6062 120.3598 14.63676648732552
CUTE-1.7+APD II
1 32785U 08021C   19203.83918728 +.00000112 +00000-0 +17712-4 0  9993
2 32785 097.5499 201.9439 0013970 144.0322 216.1838 14.88322556608696
DELFI C3
1 32789U 08021G   19203.68112974  .00001100  00000-0  77375-4 0  9998
2 32789  97.4620 252.3172 0012438  17.3919 342.7733 15.07010433612089
SEEDS
1 32791U 08021J   19203.73305692 +.00000081 +00000-0 +13599-4 0  9993
2 32791 097.5278 207.8507 0014781 120.8719 239.3955 14.90837972609102
YUBELEINY
1 32953U 08025A   19204.49413745  .00000021  00000-0  75656-4 0  9996
2 32953  82.5028 123.1260 0020434  53.8275 306.4694 12.43090678506639
PRISM (HITOMI)
1 33493U 09002B   19204.36074153 -.00000225  00000-0 -14050-4 0  9993
2 33493  98.1213 126.6311 0016582  69.2270 291.0725 14.96682259570332
KKS-1 (KISEKI)
1 33499U 09002H   19204.53259997  .00000022  00000-0  11298-4 0  9993
2 33499  98.3487  44.3475 0010508  94.9186 265.3222 14.75449681564362
SWISSCUBE
1 35932U 09051B   19204.43179642  .00000071  00000-0  27071-4 0  9998
2 35932  98.5912  11.4266 0008714  63.9822 296.2271 14.56294047521838
BEESAT
1 35933U 09051C   19203.88302670 +.00000052 +00000-0 +22750-4 0  9994
2 35933 098.5937 012.6353 0007043 077.5426 282.6558 14.56381937521787
ITUPSAT 1
1 35935U 09051E   19204.44163022  .00000029  00000-0  17778-4 0  9993
2 35935  98.6048  13.4463 0009311  72.7309 287.4906 14.55540695521698
XIWANG-1 (HOPE-1)
1 36122U 09072B   19203.70981063 -.00000046  00000-0 -92457-5 0  9995
2 36122 100.0722 204.4883 0006954 266.6346  93.3969 13.16350310461355
TISAT 1
1 36799U 10035E   19204.37556556  .00000334  00000-0  39775-4 0  9996
2 36799  98.1601 357.6858 0011640 338.3878  21.6846 14.91121280489934
JUGNU
1 37839U 11058B   19203.92303153 +.00000303 +00000-0 +19865-4 0  9995
2 37839 019.9610 127.1915 0018789 344.8246 078.2991 14.12654521401998
SRMSAT
1 37841U 11058D   19203.32884731  .00000277  00000-0  71206-5 0  9996
2 37841  19.9706 188.2681 0011776 205.2780 293.7659 14.10635318401443
M-CUBED/EXP-1 PRIME
1 37855U 11061F   19204.35886669  .00000955  00000-0  55685-4 0  9996
2 37855 101.7114 117.7499 0173424 334.1309  25.1307 15.05493087421992
HORYU 2
1 38340U 12025D   19203.88434622 +.00000079 +00000-0 +19498-4 0  9991
2 38340 098.3266 243.4970 0011874 022.0912 338.0805 14.75730194375799
STRAND 1
1 39090U 13009E   19204.08945460 -.00000002  00000-0  14325-4 0  9998
2 39090  98.4859  49.4659 0009029 179.1716 180.9485 14.35090779335321
SOMP
1 39134U 13015E   19204.48978515  .00000511  00000-0  32731-4 0  9990
2 39134  64.8629 267.6956 0032888 297.3836  62.3946 15.20208323345889
BEESAT 3
1 39135U 13015F   19203.68286577  .00000353  00000-0  27388-4 0  9998
2 39135  64.8699 289.0861 0025890 314.8314  45.0708 15.17511202345402
BEESAT 2
1 39136U 13015G   19203.86453577 +.00000203 +00000-0 +20255-4 0  9995
2 39136 064.8707 292.4237 0020894 299.4469 060.4571 15.16938749344963
CUBEBUG 1
1 39153U 13018D   19204.23033450  .00000082  00000-0  17561-4 0  9994
2 39153  97.9798 302.1633 0018417  87.3468 272.9852 14.80576437336931
ZACUBE
1 39417U 13066B   19203.61898006  .00000108  00000-0  20112-4 0  9992
2 39417  97.5617 215.2135 0057368 283.1780  76.3037 14.81126578306062
TRITON 1
1 39427U 13066M   19204.49410837  .00000166  00000-0  34175-4 0  9990
2 39427  97.6784 179.7248 0115163  54.4949 306.6935 14.67853710303446
GOMX 1
1 39430U 13066Q   19204.52465028  .00000085  00000-0  24099-4 0  9994
2 39430  97.7491 158.7885 0151718 143.9741 217.1790 14.59262417301688
HUMSAT D
1 39433U 13066T   19203.87981572 +.00000431 +00000-0 +47256-4 0  9996
2 39433 097.5511 249.9851 0030716 183.6856 176.4142 14.92210906306990
CUBEBUG 2
1 39440U 13066AA  19204.46385137  .00000122  00000-0  24051-4 0  9990
2 39440  97.6028 200.8486 0079552 333.0920  26.6174 14.75865089305108
FUNCUBE 1
1 39444U 13066AE  19204.47857134  .00000154  00000-0  25375-4 0  9991
2 39444  97.5597 218.0044 0056431 273.8312  85.6451 14.81947843305086
UWE-3
1 39446U 13066AG  19203.93463296 +.00000104 +00000-0 +20682-4 0  9996
2 39446 097.5812 207.4113 0068784 309.2120 050.2997 14.78399289303736
SPROUT
1 39770U 14029E   19204.34531440  .00000425  00000-0  53157-4 0  9998
2 39770  97.8854 307.4145 0008837 340.4683  19.6187 14.87367780279985
UNISAT 6
1 40012U 14033C   19203.68587780  .00000070  00000-0  17908-4 0  9998
2 40012  97.7535  68.8256 0058163 349.7259  10.2756 14.73987227273690
DUCHIFAT 1
1 40021U 14033M   19203.84576745  .00000117  00000-0  17834-4 0  9995
2 40021  97.9233 128.5527 0011653 302.1687  57.8400 14.90645766276631
QB50P1
1 40025U 14033R   19203.83918606  .00000143  00000-0  21178-4 0  9999
2 40025  97.9050 123.4683 0011375 312.5674  47.4582 14.88955962276401
CHUBUSAT 1
1 40300U 14070C   19204.16829157  .00000346  00000-0  18087-4 0  9995
2 40300  97.3260 277.4779 0019069 297.9670 118.5616 15.22111599261265
NUDT-PHONESAT
1 40900U 15049B   19204.48122456  .00001097  00000-0  49744-4 0  9999
2 40900  97.4361 213.4739 0014546  66.0373  89.8166 15.22863251212951
ZDPS 2A
1 40901U 15049C   19204.49873553  .00000475  00000-0  26837-4 0  9999
2 40901  97.4591 209.8179 0015164  82.9434  69.4225 15.17755885212515
ZDPS 2B
1 40902U 15049D   19204.46341685  .00000638  00000-0  35040-4 0  9990
2 40902  97.4537 207.2613 0015177  79.6638  79.2069 15.17582800212480
XW-2A
1 40903U 15049E   19204.50212397  .00001074  00000-0  27221-4 0  9990
2 40903  97.3342 247.4590 0014350  26.0353  81.5808 15.41929797215618
KAITUO 1A
1 40904U 15049F   19204.47726823  .00000441  00000-0  26812-4 0  9993
2 40904  97.4667 205.8896 0016326  87.1656  64.9860 15.15381241212264
OBJECT G
1 40905U 15049G   19204.50983096  .00000010  00000-0  41212-5 0  9999
2 40905  97.4705 203.4389 0017221  83.0113  34.7152 15.14304782212147
XW-2C
1 40906U 15049H   19204.39733014  .00000486  00000-0  28953-4 0  9993
2 40906  97.4673 205.8999 0016507  79.9449  29.7410 15.15697097212255
XW-2D
1 40907U 15049J   19204.44300192  .00000083  00000-0  77694-5 0  9997
2 40907  97.4650 205.6228 0015788  77.7755  66.5233 15.15883415212275
LILACSAT 2
1 40908U 15049K   19204.43693567 -.00000116  00000-0 -27675-5 0  9991
2 40908  97.4784 204.4280 0017543  83.0373  52.5609 15.13811908212061
XW-2F
1 40910U 15049M   19204.50528148  .00000370  00000-0  21889-4 0  9994
2 40910  97.4619 207.7197 0016365  71.1547  79.9954 15.17327951212291
XW-2B
1 40911U 15049N   19204.40502434  .00000523  00000-0  30761-4 0  9993
2 40911  97.4675 206.2403 0015711  77.8735  32.4884 15.15816586212161
